Location: Ellingshausen
(50.5460°N, 10.4723°E)
Time: 04:29:01
(UTC+00:00)

Cosmos 1743 Rocket - Visible Passes

Search period start: 21 April 2026 00:00
Search period end: 01 May 2026 00:00
Orbit: 599 x 624 km, 82.6° (Epoch: 20 April)

Date Brightness Start Highest point End Pass type
(mag) Time Alt. Az. Time Alt. Az. Time Alt. Az.
21 Apr 6.8 02:16:02 10° NNE 02:18:14 13° ENE 02:20:26 10° E visible
22 Apr 6.4 02:30:09 10° NNE 02:33:28 20° ENE 02:36:45 10° ESE visible
23 Apr 5.6 02:44:39 10° N 02:48:36 31° ENE 02:52:29 10° SE visible
24 Apr 4.6 02:59:22 10° N 03:03:39 49° ENE 03:07:53 10° SSE visible
25 Apr 6.8 01:38:34 10° NE 01:40:07 12° ENE 01:41:40 10° E visible
25 Apr 3.7 03:14:12 10° N 03:18:38 82° E 03:22:59 10° SSE visible
26 Apr 6.4 01:52:22 10° NNE 01:55:22 18° ENE 01:58:20 10° ESE visible
27 Apr 5.8 02:06:47 10° N 02:10:32 27° ENE 02:14:14 10° SE visible
28 Apr 4.9 02:21:26 10° N 02:25:37 42° ENE 02:29:44 10° SE visible
29 Apr 3.9 02:36:13 10° N 02:40:36 69° ENE 02:44:55 10° SSE visible
30 Apr 6.4 01:14:38 10° NNE 01:17:16 15° ENE 01:19:51 10° E visible
30 Apr 3.5 02:51:09 10° NNW 02:55:31 72° W 02:59:50 10° S visible
